Regional Weather Roundup
Issued by NWS

Home | Current Version | Previous Version | Text Only | Print | Product List | Glossary Off
Versions: 1 2 3 4 5 6 7 8 9 10 11 12 13 14 15 16 17 18 19 20 21 22 23 24 25 26 27 28 29 30 31 32 33 34 35 36 37 38 39 40 41 42 43 44 45 46 47 48 49 50

690
ASUS44 KJAN 020110
RWRMS

MISSISSIPPI HOURLY WEATHER ROUNDUP
NATIONAL WEATHER SERVICE JACKSON MS
800 PM CDT WED APR 01 2015

NOTE: "FAIR: INDICATES FEW OR NO CLOUDS BELOW 12,000 FEET WITH NO
SIGNIFICANT WEATHER AND/OR OBSTRUCTIONS TO VISIBILITY.

MSZ001>002-007>008-010>013-018>021-025>028-034>036-020200-
NORTHWEST MISSISSIPPI

CITY           SKY/WX    TMP DP  RH WIND       PRES   REMARKS
CLARKSDALE     FAIR      73  63  68 SE10      29.94R
CLEVELAND      FAIR      72  61  68 S8        29.93R
GREENWOOD      CLEAR     72  60  66 SE5       29.96S
GREENVILLE     CLEAR     73  59  61 SE8       29.92R
OLIVE BRANCH   MOCLDY    66  64  94 E6        29.97R
OXFORD         FAIR      68  59  73 SE6       30.00R
TUNICA         PTCLDY    70  63  78 SE12      29.95R
$$

MSZ003>006-009-014>017-022>024-029>033-037>039-020200-
NORTHEAST MISSISSIPPI

CITY           SKY/WX    TMP DP  RH WIND       PRES   REMARKS
COLUMBUS AFB   LGT RAIN  72  61  68 SW6       30.00R
CORINTH        LGT RAIN  70  63  78 S3        29.98F
GOLDN TRIANGLE PTCLDY    73  59  60 SW7       30.00R
STARKVILLE     FAIR      72  59  64 S3        30.01S
TUPELO         MOCLDY    69  62  78 SW3       29.99R
$$

MSZ040-058-020200-
CENTRAL MISSISSIPPI

CITY           SKY/WX    TMP DP  RH WIND       PRES   REMARKS
JACKSON INTL   MOCLDY    70  59  68 SE8       29.98R
JACKSON HAWKNS MOCLDY    73  58  59 S8        29.98R
MERIDIAN KEY   PTCLDY    67  59  75 S3        30.02R
MERIDIAN NAS   MOCLDY    69  58  67 E3        30.02R
RAYMOND        FAIR      73  68  83 SE6       29.96F
VICKSBURG      CLOUDY    74  56  53 S7        29.96R
$$

MSZ059>079-020200-
SOUTH MISSISSIPPI

CITY           SKY/WX    TMP DP  RH WIND       PRES   REMARKS
BROOKHAVEN     FAIR      72  63  73 CALM      30.02S
HATTIESBURG    MOCLDY    73  64  73 S8        30.04R
MCCOMB         CLOUDY    72  61  68 S8        30.02R
NATCHEZ        CLOUDY    75  61  60 S10       29.99S
PINE BELT      MOCLDY    70  54  56 S9        30.04R
$$

MSZ080>082-020200-
COASTAL MISSISSIPPI

CITY           SKY/WX    TMP DP  RH WIND       PRES   REMARKS
BILOXI         CLOUDY    72  68  88 S8        30.05R
PASCAGOULA     CLOUDY    71  66  84 S6        30.06S
GULFPORT       CLOUDY    73  67  81 SE10      30.04S
$$



USA.gov is the U.S. government's official web portal to all federal, state and local government web resources and services.